STARLINK-11480, 62830

Orbit data source: Space-Track

STARLINK-11480, 62830 is a payload satellite owned by SpaceX/Seattle (US) in LEO that was launched on Mon, 27 Jan 2025 UTC via an FALCON 9 launch vehicle from the Air Force Eastern Test Range (AFETR). Payload-class satellites include a variety of spacecraft equipped with specific instruments for various scientific and technological missions. These include communications satellites like Starlink; space stations such as the ISS; scientific satellites like the Hubble; Earth observation satellites from companies like Planet Labs, Umbra, and HawkEye 360; GPS; miniature CubeSats for education and research; and military/defense satellites.

Loading next visibility...
Identifier
62830, 2025-019B
Orbit
LEO
Last TLE update
14 hours ago
Origin
Manufacturer
SpaceX/Seattle
Mission
Operational Commercial Communications
Bus & Motor
STARLINK V2M, Unknown motor
Mass
730 kg wet, ~700 kg dry
Launch date (UTC)
2025-01-27 (5 months ago)
Launch vehicle
FALCON 9
Launch site
Air Force Eastern Test Range (AFETR)
Object type
Payload
Rocket body
Debris
Shape & HBR
Box + 2 Pan, 29 m
Radar Cross Section
36.964 m², Large (>1 m²)

Expand to show TLE details & history

TLE from 14 hours ago
0 STARLINK-11480
1 62830U 25019B   25183.25457263  .00028928  00000-0  22820-3 0  9995
2 62830  43.0007  15.5415 0002793 266.1866  93.8682 15.70832440 24491
Epoch: 2025-07-02T06:06Z
TLE epoch observation values (Epoch: 2025-07-02T06:06:35.075Z)
Latitude
-0.00003°
Longitude
3.35701°
Altitude
356.415 km
Speed
7.697 km/s
True Right ascension
01h 02m 09s
True Declination
0° 00' 00"
Sunlit
Object was in daylight at epoch
Visualization orbit readout
Latitude
37.30809°
Longitude
125.43412°
Altitude
359.968 km
Speed
7.698 km/s
Apparent Right ascension
13h 27m 45s
Apparent Declination
0° 17' 53"
Sunlit
Object is in daylight
Visualization observer readout
Local Sidereal Time
08:04:32
Azimuth
96.159° ESE
Elevation
6.848°
Doppler factor
1
Orbital elements
Apogee altitude
360.38 km
Perigee altitude
356.617 km
Semi-major axis
6,736.635 km
Eccentricity
0.00028
Inclination
43.0007°
RAAN
15.5415°
Arg. of periapsis
266.1866°
True anomaly
Unknown
Mean anomaly
93.8682°
Eccentric anomaly
Unknown
Mean motion
3.92535 °/min
Orbital period
91.71 mins
BSTAR
0.0002282
Loading maneuver chart data...
Loading SW <> Apogee altitude chart data...
Loading historical data...
Loading historical data...
Loading historical data...
Loading historical data...
Loading historical data...
Loading historical data...
Loading historical data...

STARLINK-11480 Visibility forecast

Observer location: undefined°, undefined°

Span
Click to sort rows by Start time (UTC) header in descending order
Start Az.
Max El. time (UTC)
Max El. Az.
Max El.
End time (UTC)
End Az.
5 mins2025-07-02 21:50:31.395Z271.822° WNW2025-07-02 21:53:31.395Z188.062° SSW25.476°2025-07-02 21:55:31.395Z146.402° SSE
4 mins2025-07-03 15:54:31.395Z203.839° SW2025-07-03 15:55:31.395Z173.987° S27.609°2025-07-03 15:58:31.395Z86.281° E
4 mins2025-07-03 17:30:31.395Z276.387° WNW2025-07-03 17:31:31.395Z303.775° NW36.885°2025-07-03 17:34:31.395Z67.31° ENE
4 mins2025-07-03 19:06:31.395Z298.021° NW2025-07-03 19:08:31.395Z18.503° NNE35.301°2025-07-03 19:10:31.395Z76.629° E
|